• în Republica Moldova
  • Lista ţărilor
  • Pe 7 zile
  • Temperatura apei
  • Hartă satelitară
  • Meteo pe hartă
  • Widget-uri
  • user-avatar
    Intrare

    Meteo pe oră la Linkovo

    Astăzi, 19 Iulie, Joi

    Timp Temperatura Precipitaţii Vânt Presiune Umiditate
    00:00 +18°C° 0,1 mm 3 m/s 731 mmHg 96%
    01:00 +18°C° 0,1 mm 3 m/s 731 mmHg 96%
    02:00 +18°C° 0,1 mm 3 m/s 731 mmHg 96%
    03:00 +18°C° 0,1 mm 3 m/s 731 mmHg 96%
    04:00 +18°C° 0,1 mm 3 m/s 731 mmHg 97%
    05:00 +18°C° 0,1 mm 3 m/s 731 mmHg 97%
    06:00 +18°C° 0,1 mm 4 m/s 731 mmHg 96%
    07:00 +19°C° 0,1 mm 4 m/s 731 mmHg 95%
    08:00 +19°C° 0,1 mm 4 m/s 731 mmHg 95%
    09:00 +19°C° 0,1 mm 4 m/s 731 mmHg 92%
    10:00 +20°C° 0,1 mm 3 m/s 731 mmHg 90%
    11:00 +20°C° 0,1 mm 3 m/s 731 mmHg 88%
    12:00 +21°C° 0,4 mm 4 m/s 731 mmHg 86%
    13:00 +22°C° 0,4 mm 4 m/s 731 mmHg 84%
    14:00 +23°C° 0,4 mm 4 m/s 731 mmHg 82%
    15:00 +22°C° 0,6 mm 4 m/s 731 mmHg 85%
    16:00 +22°C° 0,6 mm 4 m/s 731 mmHg 88%
    17:00 +22°C° 0,6 mm 3 m/s 731 mmHg 91%
    18:00 +21°C° 0,2 mm 3 m/s 731 mmHg 92%
    19:00 +20°C° 0,2 mm 3 m/s 731 mmHg 94%
    20:00 +20°C° 0,2 mm 3 m/s 731 mmHg 95%
    21:00 +19°C° 0,7 mm 3 m/s 731 mmHg 96%
    22:00 +19°C° 0,7 mm 3 m/s 731 mmHg 97%
    23:00 +19°C° 0,7 mm 3 m/s 730 mmHg 98%

    Mâine, 20 Iulie, Vineri

    Timp Temperatura Precipitaţii Vânt Presiune Umiditate
    00:00 +19°C° 0,3 mm 3 m/s 730 mmHg 98%
    01:00 +19°C° 0,3 mm 3 m/s 730 mmHg 98%
    02:00 +19°C° 0,3 mm 3 m/s 730 mmHg 98%
    03:00 +19°C° 0,2 mm 3 m/s 730 mmHg 98%
    04:00 +18°C° 0,2 mm 3 m/s 730 mmHg 98%
    05:00 +18°C° 0,2 mm 3 m/s 730 mmHg 98%
    06:00 +19°C° 0,1 mm 3 m/s 730 mmHg 97%
    07:00 +19°C° 0,1 mm 3 m/s 730 mmHg 97%
    08:00 +19°C° 0,1 mm 3 m/s 730 mmHg 96%
    09:00 +19°C° 0,1 mm 3 m/s 730 mmHg 96%
    10:00 +19°C° 0,1 mm 3 m/s 730 mmHg 95%
    11:00 +20°C° 0,1 mm 3 m/s 730 mmHg 94%
    12:00 +20°C° 0,1 mm 3 m/s 730 mmHg 93%
    13:00 +20°C° 0,1 mm 3 m/s 730 mmHg 93%
    14:00 +20°C° 0,1 mm 3 m/s 730 mmHg 92%
    15:00 +20°C° 0,1 mm 3 m/s 730 mmHg 90%
    16:00 +21°C° 0,1 mm 3 m/s 730 mmHg 89%
    17:00 +21°C° 0,1 mm 3 m/s 730 mmHg 88%
    18:00 +20°C° 0 mm 2 m/s 730 mmHg 91%
    19:00 +20°C° 0 mm 2 m/s 730 mmHg 94%
    20:00 +19°C° 0 mm 2 m/s 730 mmHg 97%
    21:00 +18°C° 0 mm 2 m/s 730 mmHg 97%
    22:00 +19°C° 0 mm 1 m/s 730 mmHg 98%
    23:00 +18°C° 0 mm 1 m/s 729 mmHg 99%

    Poimâine, 21 Iulie, Sâmbătă

    Timp Temperatura Precipitaţii Vânt Presiune Umiditate
    00:00 +19°C° 0 mm 1 m/s 730 mmHg 99%
    01:00 +19°C° 0 mm 1 m/s 730 mmHg 99%
    02:00 +19°C° 0 mm 1 m/s 730 mmHg 99%
    03:00 +19°C° 0 mm 1 m/s 730 mmHg 98%
    04:00 +17°C° 0 mm 0 m/s 730 mmHg 98%
    05:00 +18°C° 0 mm 0 m/s 730 mmHg 97%
    06:00 +18°C° 0 mm 0 m/s 730 mmHg 96%
    07:00 +19°C° 0 mm 0 m/s 730 mmHg 94%
    08:00 +19°C° 0 mm 0 m/s 731 mmHg 92%
    09:00 +22°C° 0 mm 1 m/s 731 mmHg 87%
    10:00 +23°C° 0 mm 1 m/s 731 mmHg 83%
    11:00 +24°C° 0 mm 1 m/s 731 mmHg 78%
    12:00 +25°C° 0 mm 1 m/s 731 mmHg 77%
    13:00 +25°C° 0 mm 1 m/s 731 mmHg 76%
    14:00 +25°C° 0 mm 1 m/s 731 mmHg 75%
    15:00 +25°C° 0,1 mm 1 m/s 731 mmHg 76%
    16:00 +26°C° 0,1 mm 1 m/s 731 mmHg 77%
    17:00 +26°C° 0,1 mm 1 m/s 731 mmHg 78%
    18:00 +24°C° 0,1 mm 1 m/s 730 mmHg 84%
    19:00 +23°C° 0,1 mm 1 m/s 730 mmHg 89%
    20:00 +22°C° 0,1 mm 1 m/s 730 mmHg 95%
    21:00 +22°C° 1 mm 1 m/s 730 mmHg 95%
    22:00 +21°C° 1 mm 1 m/s 730 mmHg 96%
    23:00 +21°C° 1 mm 1 m/s 730 mmHg 97%

    22 Iulie, Duminică

    Timp Temperatura Precipitaţii Vânt Presiune Umiditate
    00:00 +20°C° 0,1 mm 1 m/s 730 mmHg 97%
    01:00 +20°C° 0,1 mm 1 m/s 730 mmHg 97%
    02:00 +20°C° 0,1 mm 1 m/s 730 mmHg 97%
    03:00 +20°C° 0,1 mm 1 m/s 730 mmHg 98%
    04:00 +20°C° 0,1 mm 1 m/s 730 mmHg 98%
    05:00 +20°C° 0,1 mm 1 m/s 730 mmHg 98%
    06:00 +21°C° 0,1 mm 1 m/s 730 mmHg 95%
    07:00 +23°C° 0,1 mm 1 m/s 730 mmHg 92%
    08:00 +24°C° 0,1 mm 2 m/s 730 mmHg 89%
    09:00 +25°C° 0,2 mm 2 m/s 730 mmHg 83%
    10:00 +27°C° 0,2 mm 2 m/s 730 mmHg 76%
    11:00 +28°C° 0,2 mm 2 m/s 730 mmHg 70%
    12:00 +28°C° 1 mm 2 m/s 730 mmHg 72%
    13:00 +28°C° 1 mm 2 m/s 730 mmHg 74%
    14:00 +28°C° 1 mm 2 m/s 730 mmHg 77%
    15:00 +27°C° 1,4 mm 2 m/s 730 mmHg 79%
    16:00 +27°C° 1,4 mm 2 m/s 730 mmHg 81%
    17:00 +27°C° 1,4 mm 1 m/s 730 mmHg 83%
    18:00 +25°C° 1,2 mm 1 m/s 729 mmHg 86%
    19:00 +24°C° 1,2 mm 1 m/s 729 mmHg 90%
    20:00 +23°C° 1,2 mm 1 m/s 729 mmHg 93%
    21:00 +22°C° 0,5 mm 1 m/s 729 mmHg 94%
    22:00 +21°C° 0,5 mm 1 m/s 729 mmHg 95%
    23:00 +19°C° 0,5 mm 0 m/s 729 mmHg 95%

    23 Iulie, Luni

    Timp Temperatura Precipitaţii Vânt Presiune Umiditate
    00:00 +21°C° 0,2 mm 1 m/s 729 mmHg 96%
    01:00 +20°C° 0,2 mm 1 m/s 729 mmHg 96%
    02:00 +20°C° 0,2 mm 1 m/s 729 mmHg 97%
    03:00 +20°C° 0,1 mm 1 m/s 729 mmHg 97%
    04:00 +20°C° 0,1 mm 1 m/s 729 mmHg 97%
    05:00 +20°C° 0,1 mm 1 m/s 729 mmHg 97%
    06:00 +21°C° 0,3 mm 1 m/s 730 mmHg 95%
    07:00 +22°C° 0,3 mm 1 m/s 730 mmHg 93%
    08:00 +23°C° 0,3 mm 1 m/s 730 mmHg 92%
    09:00 +24°C° 1,2 mm 1 m/s 730 mmHg 90%
    10:00 +25°C° 1,2 mm 2 m/s 730 mmHg 88%
    11:00 +25°C° 1,2 mm 2 m/s 730 mmHg 87%
    12:00 +25°C° 0,9 mm 2 m/s 730 mmHg 87%
    13:00 +25°C° 0,9 mm 2 m/s 730 mmHg 87%
    14:00 +25°C° 0,9 mm 2 m/s 730 mmHg 88%
    15:00 +25°C° 1 mm 2 m/s 730 mmHg 89%
    16:00 +24°C° 1 mm 2 m/s 730 mmHg 90%
    17:00 +24°C° 1 mm 1 m/s 730 mmHg 91%
    18:00 +23°C° 0,9 mm 1 m/s 730 mmHg 92%
    19:00 +22°C° 0,9 mm 1 m/s 730 mmHg 93%
    20:00 +21°C° 0,9 mm 1 m/s 730 mmHg 94%
    21:00 +21°C° 0,2 mm 1 m/s 730 mmHg 95%
    22:00 +20°C° 0,2 mm 1 m/s 730 mmHg 96%
    23:00 +19°C° 0,2 mm 2 m/s 730 mmHg 97%

    24 Iulie, Marţi

    Timp Temperatura Precipitaţii Vânt Presiune Umiditate
    00:00 +19°C° 0 mm 2 m/s 730 mmHg 97%
    01:00 +18°C° 0 mm 2 m/s 730 mmHg 97%
    02:00 +18°C° 0 mm 2 m/s 730 mmHg 98%
    03:00 +18°C° 0 mm 2 m/s 731 mmHg 98%
    04:00 +18°C° 0 mm 2 m/s 731 mmHg 98%
    05:00 +18°C° 0 mm 2 m/s 731 mmHg 98%
    06:00 +19°C° 0 mm 3 m/s 731 mmHg 97%
    07:00 +19°C° 0 mm 3 m/s 731 mmHg 96%
    08:00 +20°C° 0 mm 3 m/s 732 mmHg 94%
    09:00 +20°C° 0 mm 3 m/s 732 mmHg 88%
    10:00 +21°C° 0 mm 3 m/s 732 mmHg 83%
    11:00 +22°C° 0 mm 3 m/s 732 mmHg 77%
    12:00 +25°C° 0 mm 3 m/s 733 mmHg 70%
    13:00 +26°C° 0 mm 3 m/s 733 mmHg 62%
    14:00 +27°C° 0 mm 3 m/s 733 mmHg 55%
    15:00 +27°C° 0 mm 3 m/s 733 mmHg 57%
    16:00 +27°C° 0 mm 3 m/s 734 mmHg 58%
    17:00 +26°C° 0 mm 3 m/s 734 mmHg 60%
    18:00 +25°C° 0 mm 2 m/s 734 mmHg 67%
    19:00 +23°C° 0 mm 2 m/s 734 mmHg 74%
    20:00 +20°C° 0 mm 2 m/s 735 mmHg 81%
    21:00 +19°C° 0 mm 2 m/s 735 mmHg 83%
    22:00 +18°C° 0 mm 2 m/s 735 mmHg 85%
    23:00 +17°C° 0 mm 2 m/s 735 mmHg 87%
    Arată mai mult